STARLINK-1892, 46743

Orbit data source: Space-Track

STARLINK-1892, 46743 is a payload satellite owned by SpaceX/Seattle (US) in LEO that was launched on Sat, 24 Oct 2020 UTC via an FALCON 9 launch vehicle from the Air Force Eastern Test Range (AFETR). Payload-class satellites include a variety of spacecraft equipped with specific instruments for various scientific and technological missions. These include communications satellites like Starlink; space stations such as the ISS; scientific satellites like the Hubble; Earth observation satellites from companies like Planet Labs, Umbra, and HawkEye 360; GPS; miniature CubeSats for education and research; and military/defense satellites.

Loading next visibility...
Identifier
46743, 2020-074E
Orbit
LEO
Country
Flag of USUS
Related business
Manufacturer
SpaceX/Seattle
Mission
Partially operational Commercial Communications
Bus & Motor
STARLINK, Unknown motor
Mass
260 kg wet, ~248 kg dry
Launch date (UTC)
2020-10-24 (5 years ago)
Launch vehicle
FALCON 9
Launch site
Air Force Eastern Test Range (AFETR)
Object type
Payload
Rocket body
Debris
Shape & HBR
Box + 1 Pan, 10.1 m
Radar Cross Section
13.562 m², Large (>1 m²)

Expand to show TLE details & history
Last TLE update: 1 day ago

TLE from 1 day ago
0 STARLINK-1892
1 46743U 20074E   25312.83069132  .00023663  00000-0  87437-3 0  9994
2 46743  53.0508 142.6445 0000642 127.6588 232.4469 15.27633230278483
Epoch: 2025-11-08T19:56Z
TLE epoch observation values (Epoch: 2025-11-08T19:56:11.730Z)
Latitude
0.00004°
Longitude
155.34099°
Altitude
484.045 km
Speed
7.624 km/s
True Right ascension
09h 30m 34s
True Declination
0° 00' 00"
Sunlit
Object was in daylight at epoch
Visualization orbit readout
Latitude
Unknown
Longitude
Unknown
Altitude
Unknown
Speed
Unknown
Apparent Right ascension
Unknown
Apparent Declination
Unknown
Sunlit
N/A
Visualization observer readout
Local Sidereal Time
18:22:02
Azimuth
Unknown
Elevation
Unknown
Doppler factor
Unknown
Orbital elements
Apogee altitude
483.604 km
Perigee altitude
482.723 km
Semi-major axis
6,861.3 km
Eccentricity
0.00006
Inclination
53.0508°
RAAN
142.6445°
Arg. of periapsis
127.6588°
True anomaly
232.44107°
Mean anomaly
232.4469°
Eccentric anomaly
232.44398°
Mean motion
3.81886 °/min
Orbital period
94.27 mins
BSTAR
0.00087437
Loading maneuver chart data...
Computing Atmospheric mass density...

Documentation

Showing up to 5 results
|